Date,TemperatureHighF,TemperatureAvgF,TemperatureLowF,DewpointHighF,DewpointAvgF,DewpointLowF,HumidityHigh,HumidityAvg,HumidityLow,PressureMaxIn,PressureMinIn,WindSpeedMaxMPH,WindSpeedAvgMPH,GustSpeedMaxMPH,PrecipitationSumIn
2012-12-1,78.4,73.0,69.2,70.5,68.8,67.4,94,87,75,30.16,30.07,16,5,16,0.00
2012-12-2,78.8,72.7,68.4,70.8,68.8,66.9,96,88,71,30.17,30.07,12,4,12,0.00
2012-12-3,79.0,72.7,68.0,71.6,69.4,67.4,98,90,73,30.09,30.00,15,3,15,0.00
2012-12-4,80.3,71.9,65.9,73.7,69.4,64.2,98,92,76,30.16,30.02,13,3,14,0.80
2012-12-5,69.9,64.3,57.4,64.6,58.8,50.7,95,83,72,30.21,30.05,19,5,19,0.00
2012-12-6,69.8,64.8,60.8,66.4,63.1,58.9,98,94,85,30.06,29.88,9,3,9,0.00
2012-12-7,78.8,71.7,66.6,71.3,68.7,65.3,97,90,76,29.90,29.80,11,2,11,0.01
2012-12-8,78.7,72.9,68.0,72.2,69.9,66.9,98,90,77,29.92,29.83,15,4,15,0.01
2012-12-9,78.3,73.8,71.2,73.4,71.1,69.2,95,91,84,29.92,29.79,18,5,18,0.00
2012-12-10,73.7,53.3,46.0,72.0,39.9,27.5,96,62,44,30.14,29.81,35,10,35,0.04
2012-12-11,51.9,47.7,43.1,32.8,29.9,26.7,61,50,40,30.24,30.11,28,8,28,0.00
2012-12-12,59.4,52.7,45.1,46.2,37.9,28.6,75,58,33,30.34,30.22,16,4,16,0.00
2012-12-13,65.5,59.9,53.1,59.7,52.4,45.4,88,77,60,30.32,30.18,20,7,20,0.00
2012-12-14,73.3,69.2,64.2,67.3,64.5,59.5,90,85,79,30.18,29.92,18,6,18,0.00
2012-12-15,78.1,72.2,70.1,72.5,69.5,66.8,95,91,83,29.96,29.85,16,5,18,0.00
2012-12-16,76.5,71.1,64.1,72.7,68.9,60.4,96,93,87,29.87,29.73,16,4,16,0.05
2012-12-17,75.6,65.4,58.8,60.5,50.8,36.0,90,65,24,29.99,29.82,16,3,16,0.00
2012-12-18,75.9,68.7,62.5,67.7,63.7,59.4,96,85,66,29.97,29.85,17,4,17,0.01
2012-12-19,76.7,72.5,70.0,71.6,69.8,67.9,96,91,83,29.85,29.72,23,8,23,0.00
2012-12-20,71.5,62.0,50.4,70.5,43.4,24.4,97,56,26,30.34,29.78,38,12,38,0.00
2012-12-21,56.8,50.6,36.4,39.8,29.3,22.2,77,45,28,30.55,30.38,11,2,28,0.00
2012-12-22,71.3,62.8,49.4,61.7,52.7,39.9,83,70,56,30.39,30.12,17,5,17,0.00
2012-12-23,74.5,69.1,64.2,67.2,65.1,61.9,94,87,77,30.12,29.92,19,5,19,0.00
2012-12-24,74.0,68.5,64.6,67.7,66.0,63.7,98,92,79,29.97,29.73,12,3,12,0.04
2012-12-25,78.1,65.7,38.3,69.6,50.8,25.3,96,66,16,30.10,29.61,39,11,39,0.00
2012-12-26,49.2,41.6,34.3,37.4,29.4,24.3,71,62,50,30.28,30.10,28,6,28,0.00
2012-12-27,66.2,54.3,45.7,64.7,50.8,36.2,98,88,69,30.13,29.80,16,5,16,0.10
2012-12-28,64.8,56.6,43.3,60.0,51.6,37.5,99,84,51,30.19,29.77,26,8,26,0.00
2012-12-29,51.2,44.4,37.9,37.9,30.1,26.5,82,58,41,30.46,30.18,25,8,25,0.00
2012-12-30,64.1,53.0,44.6,58.4,43.3,29.5,86,70,49,30.45,30.17,22,10,22,0.00
2012-12-31,69.8,66.7,63.4,67.3,63.7,58.2,97,90,83,30.18,29.92,22,5,22,0.01